| time (UTC) | temp C | wind direction | speed KPH | gust KPH | rain 1hr cm | rain 24hr cm | rain mn cm | humidity % | barometer mb |
| 20260505070108 | 16 | 236 | 0.0 | 0.0 | 0.00 | 0.00 | 0.00 | 76 | 1011.1 |
| 20260505065604 | 16 | 219 | 0.0 | 0.0 | 0.00 | 0.00 | 0.00 | 74 | 1011.0 |
| 20260505065101 | 16 | 243 | 0.0 | 0.0 | 0.00 | 0.00 | 0.00 | 75 | 1011.1 |
| 20260505064557 | 16 | 239 | 0.0 | 0.0 | 0.00 | 0.00 | 0.00 | 74 | 1011.1 |
| 20260505064056 | 16 | 209 | 0.0 | 0.0 | 0.00 | 0.00 | 0.00 | 76 | 1011.2 |
| 20260505063553 | 16 | 246 | 1.6 | 1.6 | 0.00 | 0.00 | 0.00 | 76 | 1011.2 |
| 20260505063049 | 16 | 234 | 0.0 | 0.0 | 0.00 | 0.00 | 0.00 | 78 | 1011.1 |
| 20260505062545 | 16 | 243 | 0.0 | 0.0 | 0.00 | 0.00 | 0.00 | 79 | 1011.0 |
| 20260505062043 | 16 | 178 | 1.6 | 3.2 | 0.00 | 0.00 | 0.00 | 79 | 1011.1 |
| 20260505061540 | 15 | 181 | 4.8 | 4.8 | 0.00 | 0.00 | 0.00 | 76 | 1011.1 |
| 20260505061038 | 15 | 237 | 0.0 | 0.0 | 0.00 | 0.00 | 0.00 | 74 | 1010.9 |
| 20260505060535 | 15 | 237 | 0.0 | 0.0 | 0.00 | 0.00 | 0.00 | 74 | 1010.9 |
| 20260505060031 | 15 | 229 | 0.0 | 0.0 | 0.00 | 0.00 | 0.00 | 75 | 1010.9 |
| 20260505055527 | 15 | 252 | 0.0 | 0.0 | 0.00 | 0.00 | 0.00 | 75 | 1011.1 |
| 20260505055024 | 15 | 252 | 0.0 | 0.0 | 0.00 | 0.00 | 0.00 | 75 | 1011.1 |
| 20260505054521 | 15 | 247 | 0.0 | 0.0 | 0.00 | 0.00 | 0.00 | 77 | 1011.2 |
| 20260505054019 | 15 | 247 | 0.0 | 0.0 | 0.00 | 0.00 | 0.00 | 77 | 1011.2 |
| 20260505015925 | 18 | 205 | 1.6 | 3.2 | 0.00 | 0.00 | 0.00 | 59 | 1010.6 |
| 20260505015422 | 18 | 205 | 1.6 | 3.2 | 0.00 | 0.00 | 0.00 | 59 | 1010.6 |
| 20260505014919 | 18 | 232 | 1.6 | 1.6 | 0.00 | 0.00 | 0.00 | 59 | 1010.8 |
| 20260504222732 | 21 | 236 | 1.6 | 1.6 | 0.00 | 0.00 | 0.00 | 45 | 1010.4 |
| 20260504222229 | 21 | 236 | 1.6 | 1.6 | 0.00 | 0.00 | 0.00 | 45 | 1010.4 |
| 20260504221726 | 21 | 236 | 1.6 | 1.6 | 0.00 | 0.00 | 0.00 | 45 | 1010.4 |
| 20260504160326 | 16 | 220 | 3.2 | 4.8 | 0.00 | 0.00 | 0.00 | 56 | 1014.4 |
| 20260504150647 | 16 | 155 | 8.0 | 9.7 | 0.00 | 0.00 | 0.00 | 51 | 1015.1 |
| 20260504150144 | 15 | 146 | 12.9 | 14.5 | 0.00 | 0.00 | 0.00 | 49 | 1015.0 |
| 20260504141113 | 17 | 192 | 3.2 | 3.2 | 0.00 | 0.00 | 0.00 | 43 | 1015.4 |
| 20260504140609 | 17 | 232 | 0.0 | 0.0 | 0.00 | 0.00 | 0.00 | 46 | 1015.3 |
| 20260504140105 | 17 | 169 | 1.6 | 3.2 | 0.00 | 0.00 | 0.00 | 45 | 1015.4 |
| 20260504130533 | 16 | 229 | 0.0 | 0.0 | 0.00 | 0.00 | 0.00 | 51 | 1015.7 |
| 20260504081129 | 10 | 249 | 0.0 | 0.0 | 0.00 | 0.00 | 0.00 | 65 | 1015.6 |
| 20260504080626 | 10 | 249 | 0.0 | 0.0 | 0.00 | 0.00 | 0.00 | 65 | 1015.6 |
| 20260504080122 | 10 | 248 | 0.0 | 0.0 | 0.00 | 0.00 | 0.00 | 65 | 1016.1 |